一网星座-0368星 (ONEWEB-0368 )

导读 | 星芒AI

ONEWEB-0368 是 OneWeb 卫星星座计划中的一颗低轨通信卫星,旨在为全球提供高速互联网服务。该卫星于2023年发射,属于OneWeb第二代卫星批次,部署在约1200公里高度的近极地轨道上。它采用先进通信技术,支持宽带数据传输,服务于航空、海运及偏远地区用户。OneWeb星座由数百颗卫星组成,致力于实现全球覆盖,提升数字连接能力。

基本信息
目录编号:
49294
目录名称:
ONEWEB-0368
国际标识:
2021-090R
轨道中心:
EARTH
卫星名称:
一网星座-0368星
卫星全名:
一网星座-0368星 (ONEWEB-0368 )
卫星状态:
在轨 (已飞行1477 天)
发射日期:
2021-10-14 UTC
国别 :
英国 (GB)
星等 :
--
轨道信息
数据来源 国际轨道数据 AOE轨道数据
星历时间 2025-10-30T02:14:10+0800
11小时前
查看轨道信息
2025-10-27T03:00:00+0800
3天前
查看轨道信息
半长轴 7559.912km 7559.911km
偏心率 0.0001548 0.0001324
轨道倾角 87.919° 87.919°
近地点辐角 118.012° 119.076°
升交点赤经 320.425° 321.015°
平近点角 242.117° 176.181°
近地点 1180.606km 1180.775km
远地点 1182.948km 1182.777km
周期 109.027分钟 109.027分钟
每日圈数 13.207715 13.207718
详细信息
平衡模式:
三轴稳定
覆盖范围:
全球
运营商:
一网卫星公司
运营商所在国:
英国
制造商(研发单位):
一网卫星公司
制造商所在国:
英国
使用方式:
暂无
卫星简介
OneWeb卫星网络由648颗重约125公斤的微型卫星组成,运行在1200公里的轨道上。 每颗卫星都能够提供至少每秒8千兆位的吞吐量,以使用其高吞吐量的Ku频段有效载荷为家庭和移动平台提供互联网接入。该卫星仍在工作。
2D轨道图
3D轨道图
轨道高度分析图
轨道倾角分析图
轨道综合分析图
查看轨道综合分析图